Weather History for Bloomington, IN

Change the Weather History Date:

Thursday, May 10, 2012

  Actual Average Record
Temperature  
Mean Temperature 56 °F 61 °F  
Max Temperature 70 °F 72 °F 84 °F (2005)
Min Temperature 41 °F 50 °F 39 °F (2008)
Degree Days  
Heating Degree Days 9 5  
Month to date heating degree days 16 63  
Since 1 July heating degree days 4118 5177  
Cooling Degree Days 0 1  
Month to date cooling degree days 61 10  
Year to date cooling degree days 109 29  
Growing Degree Days 6 (Base 50)    
Moisture  
Dew Point 41 °F    
Average Humidity 64    
Maximum Humidity 96    
Minimum Humidity 31    
Precipitation  
Precipitation 0.00 in 0.16 in 1.13 in (2006)
Month to date precipitation 1.87 1.77  
Year to date precipitation 11.32 16.42  
Sea Level Pressure  
Sea Level Pressure 29.98 in    
Wind  
Wind Speed 3 mph (NNW)    
Max Wind Speed 13 mph    
Max Gust Speed 18 mph    
Visibility 10 miles    
Events      
T = Trace of Precipitation, MM = Missing Value Source: NWS Daily Summary

Daily Weather History Graph

Daily Weather History Graph

Search for Another Location

Airport:

Trip Planner

Search our weather history database for the weather conditions in past years. The results will help you decide how hot, cold, wet, or windy it might be!

Date:

Astronomy

May. 10, 2012 Rise Set
Actual Time 6:37 AM EDT 8:48 PM EDT
Civil Twilight 6:07 AM EDT 9:18 PM EDT
Nautical Twilight 5:31 AM EDT 9:55 PM EDT
Astronomical Twilight 4:51 AM EDT 10:35 PM EDT
Moon 12:46 AM EDT (5/10) 11:01 AM EDT (5/10)
Length of Visible Light 15h 10m
Length of Day
14h 11m
Waning Gibbous, 73% of the Moon is Illuminated
May 10
Waning Gibbous
May 12
Last Quarter
May 20
New
May 28
First Quarter
Jun 4
Full

Hourly Weather History & Observations

Time (EDT) Temp. Dew Point Humidity Pressure Visibility Wind Dir Wind Speed Gust Speed Precip Events Conditions
12:53 AM 50.0 °F 46.0 °F 86% 29.93 in 10.0 mi North 4.6 mph - N/A   Clear
1:53 AM 48.9 °F 45.0 °F 86% 29.93 in 10.0 mi Calm Calm - N/A   Clear
2:53 AM 46.0 °F 43.0 °F 89% 29.92 in 10.0 mi Calm Calm - N/A   Clear
3:53 AM 44.1 °F 42.1 °F 93% 29.93 in 10.0 mi Calm Calm - N/A   Clear
4:53 AM 43.0 °F 41.0 °F 93% 29.94 in 7.0 mi Calm Calm - N/A   Clear
5:53 AM 43.0 °F 41.0 °F 93% 29.94 in 10.0 mi Calm Calm - N/A   Clear
6:53 AM 43.0 °F 41.0 °F 93% 29.96 in 10.0 mi Calm Calm - N/A   Clear
7:53 AM 46.9 °F 43.0 °F 86% 29.99 in 10.0 mi Calm Calm - N/A   Clear
8:53 AM 52.0 °F 43.0 °F 71% 29.99 in 10.0 mi North 4.6 mph - N/A   Clear
9:53 AM 55.9 °F 39.9 °F 55% 30.01 in 10.0 mi North 3.5 mph - N/A   Clear
10:53 AM 60.1 °F 37.0 °F 42% 30.01 in 10.0 mi North 5.8 mph - N/A   Clear
11:53 AM 63.0 °F 41.0 °F 45% 30.01 in 10.0 mi Variable 4.6 mph - N/A   Clear
12:53 PM 64.9 °F 41.0 °F 42% 30.00 in 10.0 mi North 11.5 mph 16.1 mph N/A   Partly Cloudy
1:53 PM 66.9 °F 41.0 °F 39% 29.99 in 10.0 mi NNE 8.1 mph - N/A   Scattered Clouds
2:53 PM 68.0 °F 37.9 °F 33% 29.98 in 10.0 mi Variable 5.8 mph - N/A   Scattered Clouds
3:53 PM 70.0 °F 39.9 °F 33% 29.97 in 10.0 mi NNW 8.1 mph - N/A   Mostly Cloudy
4:53 PM 66.9 °F 37.0 °F 33% 29.97 in 10.0 mi NW 5.8 mph - N/A   Clear
5:53 PM 69.1 °F 37.9 °F 32% 29.96 in 10.0 mi Variable 3.5 mph - N/A   Scattered Clouds
6:53 PM 68.0 °F 37.9 °F 33% 29.97 in 10.0 mi Variable 5.8 mph - N/A   Clear
7:53 PM 66.0 °F 39.0 °F 37% 29.97 in 10.0 mi WNW 3.5 mph - N/A   Clear
8:53 PM 57.9 °F 45.0 °F 62% 29.99 in 10.0 mi Calm Calm - N/A   Clear
9:53 PM 54.0 °F 45.0 °F 72% 30.00 in 10.0 mi Calm Calm - N/A   Clear
10:53 PM 50.0 °F 44.1 °F 80% 30.02 in 10.0 mi Calm Calm - N/A   Clear
11:53 PM 48.0 °F 45.0 °F 89% 30.04 in 10.0 mi Calm Calm - N/A   Clear